Time,TemperatureF,DewpointF,PressureIn,WindDirection,WindDirectionDegrees,WindSpeedMPH,WindSpeedGustMPH,Humidity,HourlyPrecipIn,Conditions,Clouds,dailyrainin,SoftwareType,DateUTC
2013-04-14 00:03:00,68.5,66.4,29.74,SE,137,6.0,9.2,93,0.00,,,-99.99,FreeWX 2.03,2013-04-14 05:03:00,
2013-04-14 00:08:00,68.5,66.4,29.74,SE,138,6.0,9.2,93,0.00,,,-99.99,FreeWX 2.03,2013-04-14 05:08:00,
2013-04-14 00:13:00,68.4,66.2,29.76,SE,133,5.0,8.7,93,0.00,,,-99.99,FreeWX 2.03,2013-04-14 05:13:00,
2013-04-14 00:18:00,68.4,66.6,29.76,SE,127,6.0,8.7,94,0.00,,,-99.99,FreeWX 2.03,2013-04-14 05:18:00,
2013-04-14 00:23:00,68.4,66.6,29.76,SE,134,6.0,10.5,94,0.00,,,-99.99,FreeWX 2.03,2013-04-14 05:23:00,
2013-04-14 00:28:00,68.2,66.4,29.74,SE,140,6.0,9.6,94,0.00,,,-99.99,FreeWX 2.03,2013-04-14 05:28:00,
2013-04-14 00:33:00,68.2,66.7,29.74,SE,136,5.0,9.2,95,0.00,,,-99.99,FreeWX 2.03,2013-04-14 05:33:00,
2013-04-14 00:38:00,68.2,66.7,29.74,SE,128,5.0,7.8,95,0.00,,,-99.99,FreeWX 2.03,2013-04-14 05:38:00,
2013-04-14 00:43:00,68.2,66.7,29.74,SE,125,5.0,7.8,95,0.00,,,-99.99,FreeWX 2.03,2013-04-14 05:43:00,
2013-04-14 00:48:00,68.2,66.9,29.74,ESE,123,5.0,7.4,96,0.00,,,-99.99,FreeWX 2.03,2013-04-14 05:48:00,
2013-04-14 00:53:00,68.2,66.9,29.74,SE,133,5.0,7.8,96,0.00,,,-99.99,FreeWX 2.03,2013-04-14 05:53:00,
2013-04-14 00:58:00,68.0,66.7,29.74,SE,144,5.0,7.4,96,0.00,,,-99.99,FreeWX 2.03,2013-04-14 05:58:00,
2013-04-14 01:03:00,68.0,66.7,29.74,SE,137,4.0,6.7,96,0.00,,,-99.99,FreeWX 2.03,2013-04-14 06:03:00,
2013-04-14 01:08:00,68.0,66.7,29.74,ESE,119,4.0,5.8,96,0.00,,,-99.99,FreeWX 2.03,2013-04-14 06:08:00,
2013-04-14 01:13:00,68.0,67.1,29.74,ESE,108,4.0,5.4,97,0.00,,,-99.99,FreeWX 2.03,2013-04-14 06:13:00,
2013-04-14 01:18:00,67.8,66.9,29.74,East,95,3.0,6.3,97,0.00,,,-99.99,FreeWX 2.03,2013-04-14 06:18:00,
2013-04-14 01:23:00,67.8,66.9,29.74,ENE,71,3.0,4.9,97,0.00,,,-99.99,FreeWX 2.03,2013-04-14 06:23:00,
2013-04-14 01:28:00,67.8,66.9,29.74,NE,51,2.0,4.5,97,0.00,,,-99.99,FreeWX 2.03,2013-04-14 06:28:00,
2013-04-14 01:33:00,68.0,67.1,29.74,NE,53,1.0,4.0,97,0.00,,,-99.99,FreeWX 2.03,2013-04-14 06:33:00,
2013-04-14 01:39:00,68.0,67.1,29.74,ENE,66,2.0,4.9,97,0.00,,,-99.99,FreeWX 2.03,2013-04-14 06:39:00,
2013-04-14 01:44:00,68.0,67.5,29.74,ENE,67,3.0,5.4,98,0.00,,,-99.99,FreeWX 2.03,2013-04-14 06:44:00,
2013-04-14 01:49:00,68.0,67.5,29.74,ENE,74,3.0,4.5,98,0.00,,,-99.99,FreeWX 2.03,2013-04-14 06:49:00,
2013-04-14 01:54:00,68.0,67.5,29.74,ENE,71,2.0,4.9,98,0.00,,,-99.99,FreeWX 2.03,2013-04-14 06:54:00,
2013-04-14 01:59:00,68.0,67.5,29.74,ENE,74,2.0,4.9,98,0.00,,,-99.99,FreeWX 2.03,2013-04-14 06:59:00,
2013-04-14 02:04:00,68.0,67.5,29.74,East,79,3.0,4.5,98,0.00,,,-99.99,FreeWX 2.03,2013-04-14 07:04:00,
2013-04-14 02:09:00,68.2,67.6,29.74,ENE,63,3.0,5.4,98,0.00,,,-99.99,FreeWX 2.03,2013-04-14 07:09:00,
2013-04-14 02:14:00,68.2,67.6,29.74,NE,46,4.0,6.3,98,0.00,,,-99.99,FreeWX 2.03,2013-04-14 07:14:00,
2013-04-14 02:19:00,68.2,67.6,29.74,NE,41,4.0,5.8,98,0.00,,,-99.99,FreeWX 2.03,2013-04-14 07:19:00,
2013-04-14 02:24:00,68.2,67.6,29.74,NE,51,4.0,5.4,98,0.00,,,-99.99,FreeWX 2.03,2013-04-14 07:24:00,
2013-04-14 02:29:00,68.2,67.6,29.74,ENE,63,3.0,4.9,98,0.00,,,-99.99,FreeWX 2.03,2013-04-14 07:29:00,
2013-04-14 02:34:00,68.2,67.6,29.74,ENE,63,1.0,0.0,98,0.00,,,-99.99,FreeWX 2.03,2013-04-14 07:34:00,
2013-04-14 02:39:00,68.2,67.6,29.74,North,-999,0.0,0.0,98,0.00,,,-99.99,FreeWX 2.03,2013-04-14 07:39:00,
2013-04-14 02:44:00,68.2,67.8,29.74,North,-999,0.0,0.0,99,0.00,,,-99.99,FreeWX 2.03,2013-04-14 07:44:00,
2013-04-14 02:49:00,68.2,67.8,29.74,North,-999,0.0,0.0,99,0.00,,,-99.99,FreeWX 2.03,2013-04-14 07:49:00,
2013-04-14 02:54:00,68.4,68.0,29.74,North,-999,0.0,0.0,99,0.00,,,-99.99,FreeWX 2.03,2013-04-14 07:54:00,
2013-04-14 02:59:00,68.4,68.0,29.74,North,-999,0.0,0.0,99,0.00,,,-99.99,FreeWX 2.03,2013-04-14 07:59:00,
2013-04-14 03:04:00,68.4,68.0,29.74,North,-999,0.0,0.0,99,0.00,,,-99.99,FreeWX 2.03,2013-04-14 08:04:00,
2013-04-14 03:09:00,68.4,68.0,29.74,North,-999,0.0,0.0,99,0.00,,,-99.99,FreeWX 2.03,2013-04-14 08:09:00,
2013-04-14 03:14:00,68.4,68.0,29.74,North,-999,0.0,0.0,99,0.00,,,-99.99,FreeWX 2.03,2013-04-14 08:14:00,
2013-04-14 03:19:00,68.4,68.0,29.74,North,-999,0.0,0.0,99,0.00,,,-99.99,FreeWX 2.03,2013-04-14 08:19:00,
2013-04-14 03:24:00,68.4,68.0,29.74,North,-999,0.0,0.0,99,0.00,,,-99.99,FreeWX 2.03,2013-04-14 08:24:00,
2013-04-14 03:29:00,68.4,68.0,29.74,North,-999,0.0,0.0,99,0.00,,,-99.99,FreeWX 2.03,2013-04-14 08:29:00,
2013-04-14 03:34:00,68.4,68.0,29.74,North,-999,0.0,0.0,99,0.00,,,-99.99,FreeWX 2.03,2013-04-14 08:34:00,
2013-04-14 03:39:00,68.4,68.0,29.74,North,-999,0.0,0.0,99,0.00,,,-99.99,FreeWX 2.03,2013-04-14 08:39:00,
2013-04-14 03:44:00,68.5,68.2,29.74,North,-999,0.0,0.0,99,0.00,,,-99.99,FreeWX 2.03,2013-04-14 08:44:00,
2013-04-14 03:49:00,68.5,68.2,29.74,North,-999,0.0,0.0,99,0.00,,,-99.99,FreeWX 2.03,2013-04-14 08:49:00,
2013-04-14 03:54:00,68.5,68.2,29.74,North,-999,0.0,0.0,99,0.00,,,-99.99,FreeWX 2.03,2013-04-14 08:54:00,
2013-04-14 03:59:00,68.5,68.2,29.74,North,-999,0.0,0.0,99,0.00,,,-99.99,FreeWX 2.03,2013-04-14 08:59:00,
2013-04-14 04:04:00,68.5,68.2,29.74,North,-999,0.0,0.0,99,0.00,,,-99.99,FreeWX 2.03,2013-04-14 09:04:00,
2013-04-14 04:09:00,68.5,68.2,29.74,North,-999,0.0,0.0,99,0.00,,,-99.99,FreeWX 2.03,2013-04-14 09:09:00,
2013-04-14 04:14:00,68.5,68.2,29.71,North,-999,0.0,0.0,99,0.00,,,-99.99,FreeWX 2.03,2013-04-14 09:14:00,
2013-04-14 04:19:00,68.7,68.4,29.71,North,-999,0.0,0.0,99,0.00,,,-99.99,FreeWX 2.03,2013-04-14 09:19:00,
2013-04-14 04:24:00,68.7,68.4,29.71,North,-999,0.0,0.0,99,0.00,,,-99.99,FreeWX 2.03,2013-04-14 09:24:00,
2013-04-14 04:29:00,68.7,68.4,29.71,North,-999,0.0,0.0,99,0.00,,,-99.99,FreeWX 2.03,2013-04-14 09:29:00,
2013-04-14 04:34:00,68.7,68.4,29.71,North,-999,0.0,0.0,99,0.00,,,-99.99,FreeWX 2.03,2013-04-14 09:34:00,
2013-04-14 04:39:00,68.7,68.4,29.71,North,-999,0.0,0.0,99,0.00,,,-99.99,FreeWX 2.03,2013-04-14 09:39:00,
2013-04-14 04:44:00,68.5,68.2,29.71,North,-999,0.0,0.0,99,0.00,,,-99.99,FreeWX 2.03,2013-04-14 09:44:00,
2013-04-14 04:49:00,68.5,68.2,29.71,North,-999,0.0,0.0,99,0.00,,,-99.99,FreeWX 2.03,2013-04-14 09:49:00,
2013-04-14 04:54:00,68.4,68.0,29.71,North,-999,0.0,0.0,99,0.00,,,-99.99,FreeWX 2.03,2013-04-14 09:54:00,
2013-04-14 04:59:00,68.2,67.8,29.68,North,-999,0.0,0.0,99,0.00,,,-99.99,FreeWX 2.03,2013-04-14 09:59:00,
2013-04-14 05:04:00,68.2,67.8,29.68,North,-999,0.0,0.0,99,0.00,,,-99.99,FreeWX 2.03,2013-04-14 10:04:00,
2013-04-14 05:09:00,68.0,67.6,29.68,North,-999,0.0,0.0,99,0.00,,,-99.99,FreeWX 2.03,2013-04-14 10:09:00,
2013-04-14 05:14:00,68.0,67.6,29.68,North,-999,0.0,0.0,99,0.00,,,-99.99,FreeWX 2.03,2013-04-14 10:14:00,
2013-04-14 05:19:00,68.0,67.6,29.68,North,-999,0.0,0.0,99,0.00,,,-99.99,FreeWX 2.03,2013-04-14 10:19:00,
2013-04-14 05:24:00,68.0,67.6,29.68,North,-999,0.0,0.0,99,0.00,,,-99.99,FreeWX 2.03,2013-04-14 10:24:00,
2013-04-14 05:29:00,67.8,67.5,29.68,North,-999,0.0,0.0,99,0.00,,,-99.99,FreeWX 2.03,2013-04-14 10:29:00,
2013-04-14 05:34:00,67.8,67.5,29.68,North,-999,0.0,0.0,99,0.00,,,-99.99,FreeWX 2.03,2013-04-14 10:34:00,
2013-04-14 05:39:00,67.8,67.5,29.68,North,-999,0.0,0.0,99,0.00,,,-99.99,FreeWX 2.03,2013-04-14 10:39:00,
2013-04-14 05:44:00,67.8,67.5,29.68,North,-999,0.0,0.0,99,0.00,,,-99.99,FreeWX 2.03,2013-04-14 10:44:00,
2013-04-14 05:49:00,67.8,67.8,29.68,North,-999,0.0,0.0,100,0.00,,,-99.99,FreeWX 2.03,2013-04-14 10:49:00,
2013-04-14 05:54:00,67.8,67.8,29.68,North,-999,0.0,0.0,100,0.00,,,-99.99,FreeWX 2.03,2013-04-14 10:54:00,
2013-04-14 05:59:00,67.8,67.8,29.68,North,-999,0.0,0.0,100,0.00,,,-99.99,FreeWX 2.03,2013-04-14 10:59:00,
2013-04-14 06:04:00,67.8,67.8,29.68,North,-999,0.0,0.0,100,0.00,,,-99.99,FreeWX 2.03,2013-04-14 11:04:00,
2013-04-14 06:09:00,67.8,67.8,29.68,North,-999,0.0,0.0,100,0.00,,,-99.99,FreeWX 2.03,2013-04-14 11:09:00,
2013-04-14 06:14:00,67.8,67.8,29.71,North,-999,0.0,0.0,100,0.00,,,-99.99,FreeWX 2.03,2013-04-14 11:14:00,
2013-04-14 06:19:00,67.8,67.8,29.71,North,-999,0.0,0.0,100,0.00,,,-99.99,FreeWX 2.03,2013-04-14 11:19:00,
2013-04-14 06:24:00,67.8,67.8,29.71,North,-999,0.0,0.0,100,0.00,,,-99.99,FreeWX 2.03,2013-04-14 11:24:00,
2013-04-14 06:29:00,67.8,67.8,29.68,North,-999,0.0,0.0,100,0.00,,,-99.99,FreeWX 2.03,2013-04-14 11:29:00,
2013-04-14 06:34:00,67.8,67.8,29.68,North,-999,0.0,0.0,100,0.00,,,-99.99,FreeWX 2.03,2013-04-14 11:34:00,
2013-04-14 06:39:00,67.8,67.8,29.68,North,-999,0.0,0.0,100,0.00,,,-99.99,FreeWX 2.03,2013-04-14 11:39:00,
2013-04-14 06:44:00,67.8,67.8,29.68,North,-999,0.0,0.0,100,0.00,,,-99.99,FreeWX 2.03,2013-04-14 11:44:00,
2013-04-14 06:49:00,67.6,67.6,29.68,North,-999,0.0,0.0,100,0.00,,,-99.99,FreeWX 2.03,2013-04-14 11:49:00,
2013-04-14 06:54:00,67.8,67.8,29.68,North,-999,0.0,0.0,100,0.00,,,-99.99,FreeWX 2.03,2013-04-14 11:54:00,
2013-04-14 06:59:00,67.8,67.8,29.71,North,-999,0.0,0.0,100,0.00,,,-99.99,FreeWX 2.03,2013-04-14 11:59:00,
2013-04-14 07:04:00,67.8,67.8,29.71,North,-999,0.0,0.0,100,0.00,,,-99.99,FreeWX 2.03,2013-04-14 12:04:00,
2013-04-14 07:09:00,67.8,67.8,29.71,North,-999,0.0,0.0,100,0.00,,,-99.99,FreeWX 2.03,2013-04-14 12:09:00,
2013-04-14 07:14:00,67.8,67.8,29.71,North,-999,0.0,0.0,100,0.00,,,-99.99,FreeWX 2.03,2013-04-14 12:14:00,
2013-04-14 07:19:00,68.0,68.0,29.71,North,-999,0.0,0.0,100,0.00,,,-99.99,FreeWX 2.03,2013-04-14 12:19:00,
2013-04-14 07:24:00,68.0,68.0,29.71,North,-999,0.0,0.0,100,0.00,,,-99.99,FreeWX 2.03,2013-04-14 12:24:00,
2013-04-14 07:29:00,68.0,68.0,29.71,North,-999,0.0,0.0,100,0.00,,,-99.99,FreeWX 2.03,2013-04-14 12:29:00,
2013-04-14 07:34:00,68.2,68.2,29.71,North,-999,0.0,0.0,100,0.00,,,-99.99,FreeWX 2.03,2013-04-14 12:34:00,
2013-04-14 07:39:00,68.2,68.2,29.71,North,-999,0.0,0.0,100,0.00,,,-99.99,FreeWX 2.03,2013-04-14 12:39:00,
2013-04-14 07:44:00,68.4,68.4,29.71,North,-999,0.0,0.0,100,0.00,,,-99.99,FreeWX 2.03,2013-04-14 12:44:00,
2013-04-14 07:49:00,68.4,68.4,29.71,North,-999,0.0,0.0,100,0.00,,,-99.99,FreeWX 2.03,2013-04-14 12:49:00,
2013-04-14 07:54:00,68.5,68.5,29.71,North,-999,0.0,0.0,100,0.00,,,-99.99,FreeWX 2.03,2013-04-14 12:54:00,
2013-04-14 07:59:00,68.5,68.5,29.71,North,-999,0.0,0.0,100,0.00,,,-99.99,FreeWX 2.03,2013-04-14 12:59:00,
2013-04-14 08:04:00,68.7,68.7,29.71,North,-999,0.0,0.0,100,0.00,,,-99.99,FreeWX 2.03,2013-04-14 13:04:00,
2013-04-14 08:09:00,68.7,68.7,29.71,North,-999,0.0,0.0,100,0.00,,,-99.99,FreeWX 2.03,2013-04-14 13:09:00,
2013-04-14 08:14:00,68.9,68.9,29.71,North,-999,0.0,0.0,100,0.00,,,-99.99,FreeWX 2.03,2013-04-14 13:14:00,
2013-04-14 08:19:00,68.9,68.9,29.71,North,-999,0.0,0.0,100,0.00,,,-99.99,FreeWX 2.03,2013-04-14 13:19:00,
2013-04-14 08:24:00,69.1,69.1,29.71,North,-999,0.0,0.0,100,0.00,,,-99.99,FreeWX 2.03,2013-04-14 13:24:00,
2013-04-14 08:29:00,69.3,69.3,29.71,North,-999,0.0,0.0,100,0.00,,,-99.99,FreeWX 2.03,2013-04-14 13:29:00,
2013-04-14 08:34:00,69.3,69.3,29.71,North,-999,0.0,5.8,100,0.00,,,-99.99,FreeWX 2.03,2013-04-14 13:34:00,
2013-04-14 08:39:00,69.4,69.4,29.71,South,180,3.0,7.4,100,0.00,,,-99.99,FreeWX 2.03,2013-04-14 13:39:00,
2013-04-14 08:44:00,69.6,69.6,29.74,South,181,4.0,8.7,100,0.00,,,-99.99,FreeWX 2.03,2013-04-14 13:44:00,
2013-04-14 08:49:00,70.0,70.0,29.74,South,182,5.0,9.2,100,0.00,,,-99.99,FreeWX 2.03,2013-04-14 13:49:00,
2013-04-14 08:54:00,70.2,70.2,29.74,South,184,5.0,7.4,100,0.00,,,-99.99,FreeWX 2.03,2013-04-14 13:54:00,
2013-04-14 08:59:00,70.3,70.3,29.74,South,182,5.0,8.3,100,0.00,,,-99.99,FreeWX 2.03,2013-04-14 13:59:00,
2013-04-14 09:04:00,70.5,70.5,29.74,South,187,5.0,7.4,100,0.00,,,-99.99,FreeWX 2.03,2013-04-14 14:04:00,
2013-04-14 09:09:00,70.7,70.7,29.74,South,189,4.0,7.4,100,0.00,,,-99.99,FreeWX 2.03,2013-04-14 14:09:00,
2013-04-14 09:14:00,70.9,70.9,29.74,South,189,3.0,5.8,100,0.00,,,-99.99,FreeWX 2.03,2013-04-14 14:14:00,
2013-04-14 09:19:00,71.2,71.2,29.74,South,188,3.0,6.7,100,0.00,,,-99.99,FreeWX 2.03,2013-04-14 14:19:00,
2013-04-14 09:24:00,71.4,71.4,29.74,South,184,4.0,7.8,100,0.00,,,-99.99,FreeWX 2.03,2013-04-14 14:24:00,
2013-04-14 09:29:00,71.6,71.6,29.74,South,183,4.0,7.8,100,0.00,,,-99.99,FreeWX 2.03,2013-04-14 14:29:00,
2013-04-14 09:34:00,71.8,71.8,29.74,South,179,5.0,8.3,100,0.00,,,-99.99,FreeWX 2.03,2013-04-14 14:34:00,
2013-04-14 09:39:00,72.0,72.0,29.74,South,182,5.0,7.8,100,0.00,,,-99.99,FreeWX 2.03,2013-04-14 14:39:00,
2013-04-14 09:44:00,72.3,72.0,29.74,South,184,5.0,9.2,99,0.00,,,-99.99,FreeWX 2.03,2013-04-14 14:44:00,
2013-04-14 09:49:00,72.5,72.1,29.74,South,183,5.0,9.2,99,0.00,,,-99.99,FreeWX 2.03,2013-04-14 14:49:00,
2013-04-14 09:54:00,72.7,72.3,29.74,South,183,6.0,11.6,99,0.00,,,-99.99,FreeWX 2.03,2013-04-14 14:54:00,
2013-04-14 09:59:00,73.0,72.7,29.74,South,184,6.0,10.1,99,0.00,,,-99.99,FreeWX 2.03,2013-04-14 14:59:00,
2013-04-14 10:04:00,73.4,72.9,29.74,South,187,6.0,9.2,98,0.00,,,-99.99,FreeWX 2.03,2013-04-14 15:04:00,
2013-04-14 10:09:00,73.6,73.0,29.74,South,187,6.0,9.6,98,0.00,,,-99.99,FreeWX 2.03,2013-04-14 15:09:00,
2013-04-14 10:14:00,73.8,73.2,29.74,South,191,7.0,11.6,98,0.00,,,-99.99,FreeWX 2.03,2013-04-14 15:14:00,
2013-04-14 10:19:00,73.8,72.9,29.74,South,189,7.0,10.5,97,0.00,,,-99.99,FreeWX 2.03,2013-04-14 15:19:00,
2013-04-14 10:24:00,73.8,72.9,29.74,South,184,6.0,11.0,97,0.00,,,-99.99,FreeWX 2.03,2013-04-14 15:24:00,
2013-04-14 10:29:00,73.9,73.0,29.74,South,184,6.0,9.6,97,0.00,,,-99.99,FreeWX 2.03,2013-04-14 15:29:00,
2013-04-14 10:34:00,74.3,73.0,29.74,South,186,6.0,10.5,96,0.00,,,-99.99,FreeWX 2.03,2013-04-14 15:34:00,
2013-04-14 10:39:00,74.5,73.2,29.74,South,184,7.0,11.6,96,0.00,,,-99.99,FreeWX 2.03,2013-04-14 15:39:00,
2013-04-14 10:44:00,75.0,73.4,29.74,South,182,7.0,10.5,95,0.00,,,-99.99,FreeWX 2.03,2013-04-14 15:44:00,
2013-04-14 10:49:00,75.7,74.1,29.74,South,183,6.0,9.6,95,0.00,,,-99.99,FreeWX 2.03,2013-04-14 15:49:00,
2013-04-14 10:54:00,76.3,74.5,29.74,South,181,6.0,11.2,94,0.00,,,-99.99,FreeWX 2.03,2013-04-14 15:54:00,
2013-04-14 10:59:00,77.0,74.8,29.74,South,180,6.0,11.2,93,0.00,,,-99.99,FreeWX 2.03,2013-04-14 15:59:00,
2013-04-14 11:10:00,78.3,75.0,29.74,South,178,6.0,9.6,90,0.00,,,-99.99,FreeWX 2.03,2013-04-14 16:10:00,
2013-04-14 11:15:00,78.8,75.2,29.74,South,180,6.0,11.0,89,0.00,,,-99.99,FreeWX 2.03,2013-04-14 16:15:00,
2013-04-14 11:20:00,79.0,75.0,29.74,South,182,6.0,9.6,88,0.00,,,-99.99,FreeWX 2.03,2013-04-14 16:20:00,
2013-04-14 11:25:00,79.5,75.4,29.74,South,181,6.0,11.0,87,0.00,,,-99.99,FreeWX 2.03,2013-04-14 16:25:00,
2013-04-14 11:30:00,80.1,75.6,29.74,South,180,6.0,10.1,86,0.00,,,-99.99,FreeWX 2.03,2013-04-14 16:30:00,
2013-04-14 11:35:00,80.4,75.2,29.74,South,183,6.0,11.2,84,0.00,,,-99.99,FreeWX 2.03,2013-04-14 16:35:00,
2013-04-14 11:40:00,80.6,75.0,29.74,South,185,6.0,12.5,83,0.00,,,-99.99,FreeWX 2.03,2013-04-14 16:40:00,
2013-04-14 11:45:00,80.4,74.1,29.74,South,184,7.0,12.1,81,0.00,,,-99.99,FreeWX 2.03,2013-04-14 16:45:00,
2013-04-14 11:50:00,80.2,73.4,29.74,South,182,8.0,13.0,80,0.00,,,-99.99,FreeWX 2.03,2013-04-14 16:50:00,
2013-04-14 11:55:00,80.1,73.4,29.74,South,178,7.0,11.6,80,0.00,,,-99.99,FreeWX 2.03,2013-04-14 16:55:00,
2013-04-14 12:00:00,80.1,73.4,29.74,South,176,6.0,11.6,80,0.00,,,-99.99,FreeWX 2.03,2013-04-14 17:00:00,
2013-04-14 12:05:00,80.1,73.4,29.74,South,178,7.0,13.4,80,0.00,,,-99.99,FreeWX 2.03,2013-04-14 17:05:00,
2013-04-14 12:10:00,80.2,73.4,29.74,South,182,7.0,15.2,80,0.00,,,-99.99,FreeWX 2.03,2013-04-14 17:10:00,
2013-04-14 12:15:00,80.4,73.2,29.74,South,183,7.0,13.0,79,0.00,,,-99.99,FreeWX 2.03,2013-04-14 17:15:00,
2013-04-14 12:20:00,80.6,73.4,29.74,South,182,7.0,12.1,79,0.00,,,-99.99,FreeWX 2.03,2013-04-14 17:20:00,
2013-04-14 12:25:00,80.8,73.6,29.74,South,177,7.0,13.0,79,0.00,,,-99.99,FreeWX 2.03,2013-04-14 17:25:00,
2013-04-14 12:30:00,80.6,73.0,29.74,South,173,8.0,14.3,78,0.00,,,-99.99,FreeWX 2.03,2013-04-14 17:30:00,
2013-04-14 12:35:00,80.2,72.7,29.74,South,173,9.0,13.4,78,0.00,,,-99.99,FreeWX 2.03,2013-04-14 17:35:00,
2013-04-14 12:40:00,80.2,72.7,29.74,South,169,8.0,12.5,78,0.00,,,-99.99,FreeWX 2.03,2013-04-14 17:40:00,
2013-04-14 12:45:00,80.2,72.7,29.74,SSE,165,7.0,14.3,78,0.00,,,-99.99,FreeWX 2.03,2013-04-14 17:45:00,
2013-04-14 12:50:00,80.2,72.7,29.74,SSE,164,7.0,10.5,78,0.00,,,-99.99,FreeWX 2.03,2013-04-14 17:50:00,
2013-04-14 12:55:00,80.2,72.7,29.74,SSE,165,7.0,14.8,78,0.00,,,-99.99,FreeWX 2.03,2013-04-14 17:55:00,
2013-04-14 13:00:00,80.1,72.5,29.74,SSE,165,8.0,12.5,78,0.00,,,-99.99,FreeWX 2.03,2013-04-14 18:00:00,
2013-04-14 13:05:00,79.9,72.3,29.74,SSE,164,8.0,12.1,78,0.00,,,-99.99,FreeWX 2.03,2013-04-14 18:05:00,
2013-04-14 13:10:00,79.7,72.1,29.71,SSE,163,8.0,15.2,78,0.00,,,-99.99,FreeWX 2.03,2013-04-14 18:10:00,
2013-04-14 13:15:00,79.5,72.0,29.71,SSE,160,8.0,15.2,78,0.00,,,-99.99,FreeWX 2.03,2013-04-14 18:15:00,
2013-04-14 13:20:00,79.5,72.0,29.71,SSE,159,9.0,14.8,78,0.00,,,-99.99,FreeWX 2.03,2013-04-14 18:20:00,
2013-04-14 13:25:00,79.7,72.1,29.71,SSE,158,8.0,13.9,78,0.00,,,-99.99,FreeWX 2.03,2013-04-14 18:25:00,
2013-04-14 13:30:00,79.7,72.1,29.71,SSE,156,8.0,15.4,78,0.00,,,-99.99,FreeWX 2.03,2013-04-14 18:30:00,
2013-04-14 13:35:00,79.5,72.0,29.71,SSE,156,9.0,14.8,78,0.00,,,-99.99,FreeWX 2.03,2013-04-14 18:35:00,
2013-04-14 13:40:00,79.3,71.8,29.71,SSE,156,10.0,13.9,78,0.00,,,-99.99,FreeWX 2.03,2013-04-14 18:40:00,
2013-04-14 13:45:00,79.3,71.8,29.71,SSE,154,9.0,14.3,78,0.00,,,-99.99,FreeWX 2.03,2013-04-14 18:45:00,
2013-04-14 13:50:00,79.5,72.0,29.71,SSE,154,9.0,15.9,78,0.00,,,-99.99,FreeWX 2.03,2013-04-14 18:50:00,
2013-04-14 13:55:00,79.7,72.7,29.71,SSE,155,8.0,15.2,79,0.00,,,-99.99,FreeWX 2.03,2013-04-14 18:55:00,
2013-04-14 14:00:00,79.9,72.3,29.71,SSE,153,9.0,14.3,78,0.00,,,-99.99,FreeWX 2.03,2013-04-14 19:00:00,
2013-04-14 14:05:00,79.7,72.1,29.71,SSE,153,9.0,15.2,78,0.00,,,-99.99,FreeWX 2.03,2013-04-14 19:05:00,
2013-04-14 14:10:00,80.1,72.5,29.71,SSE,150,9.0,15.9,78,0.00,,,-99.99,FreeWX 2.03,2013-04-14 19:10:00,
2013-04-14 14:15:00,80.2,72.7,29.71,SSE,150,10.0,15.4,78,0.00,,,-99.99,FreeWX 2.03,2013-04-14 19:15:00,
2013-04-14 14:20:00,80.1,72.1,29.71,SSE,150,9.0,13.0,77,0.00,,,-99.99,FreeWX 2.03,2013-04-14 19:20:00,
2013-04-14 14:25:00,79.9,72.0,29.68,SSE,148,9.0,18.1,77,0.00,,,-99.99,FreeWX 2.03,2013-04-14 19:25:00,
2013-04-14 14:30:00,79.7,71.8,29.68,SSE,149,10.0,15.4,77,0.00,,,-99.99,FreeWX 2.03,2013-04-14 19:30:00,
2013-04-14 14:35:00,79.9,72.3,29.68,SSE,148,10.0,17.2,78,0.00,,,-99.99,FreeWX 2.03,2013-04-14 19:35:00,
2013-04-14 14:40:00,79.9,72.0,29.68,SE,145,9.0,15.9,77,0.00,,,-99.99,FreeWX 2.03,2013-04-14 19:40:00,
2013-04-14 14:45:00,79.7,71.8,29.68,SSE,148,10.0,15.9,77,0.00,,,-99.99,FreeWX 2.03,2013-04-14 19:45:00,
2013-04-14 14:50:00,79.7,72.1,29.68,SSE,148,9.0,15.2,78,0.00,,,-99.99,FreeWX 2.03,2013-04-14 19:50:00,
2013-04-14 14:55:00,79.7,71.8,29.68,SSE,147,10.0,15.4,77,0.00,,,-99.99,FreeWX 2.03,2013-04-14 19:55:00,
2013-04-14 15:00:00,79.5,71.6,29.68,SSE,147,11.0,17.7,77,0.00,,,-99.99,FreeWX 2.03,2013-04-14 20:00:00,
2013-04-14 15:05:00,79.3,71.4,29.68,SSE,148,11.0,17.7,77,0.00,,,-99.99,FreeWX 2.03,2013-04-14 20:05:00,
2013-04-14 15:10:00,79.3,71.8,29.68,SSE,148,10.0,14.8,78,0.00,,,-99.99,FreeWX 2.03,2013-04-14 20:10:00,
2013-04-14 15:15:00,79.3,71.8,29.68,SE,146,10.0,18.1,78,0.00,,,-99.99,FreeWX 2.03,2013-04-14 20:15:00,
2013-04-14 15:20:00,79.2,71.6,29.68,SE,145,11.0,17.2,78,0.00,,,-99.99,FreeWX 2.03,2013-04-14 20:20:00,
2013-04-14 15:25:00,79.0,72.0,29.68,SE,146,11.0,15.9,79,0.00,,,-99.99,FreeWX 2.03,2013-04-14 20:25:00,
2013-04-14 15:30:00,79.2,72.1,29.68,SSE,147,11.0,17.7,79,0.00,,,-99.99,FreeWX 2.03,2013-04-14 20:30:00,
2013-04-14 15:35:00,79.3,72.3,29.68,SSE,148,10.0,16.8,79,0.00,,,-99.99,FreeWX 2.03,2013-04-14 20:35:00,
2013-04-14 15:40:00,79.5,72.5,29.68,SSE,148,11.0,15.9,79,0.00,,,-99.99,FreeWX 2.03,2013-04-14 20:40:00,
2013-04-14 15:45:00,79.5,72.5,29.68,SE,146,11.0,17.2,79,0.00,,,-99.99,FreeWX 2.03,2013-04-14 20:45:00,
2013-04-14 15:50:00,79.3,71.8,29.68,SSE,148,11.0,15.2,78,0.00,,,-99.99,FreeWX 2.03,2013-04-14 20:50:00,
2013-04-14 15:55:00,79.2,72.1,29.65,SSE,148,11.0,17.7,79,0.00,,,-99.99,FreeWX 2.03,2013-04-14 20:55:00,
2013-04-14 16:00:00,79.3,72.3,29.65,SSE,148,10.0,16.3,79,0.00,,,-99.99,FreeWX 2.03,2013-04-14 21:00:00,
2013-04-14 16:05:00,79.2,72.1,29.65,SSE,150,11.0,16.8,79,0.00,,,-99.99,FreeWX 2.03,2013-04-14 21:05:00,
2013-04-14 16:10:00,79.3,72.3,29.65,SSE,149,11.0,16.8,79,0.00,,,-99.99,FreeWX 2.03,2013-04-14 21:10:00,
2013-04-14 16:15:00,79.3,72.3,29.65,SSE,148,11.0,15.9,79,0.00,,,-99.99,FreeWX 2.03,2013-04-14 21:15:00,
2013-04-14 16:20:00,79.2,72.1,29.65,SSE,148,11.0,15.9,79,0.00,,,-99.99,FreeWX 2.03,2013-04-14 21:20:00,
2013-04-14 16:25:00,79.0,72.0,29.65,SE,146,10.0,14.8,79,0.00,,,-99.99,FreeWX 2.03,2013-04-14 21:25:00,
2013-04-14 16:30:00,78.8,71.8,29.65,SE,145,10.0,16.8,79,0.00,,,-99.99,FreeWX 2.03,2013-04-14 21:30:00,
2013-04-14 16:35:00,78.8,72.1,29.65,SE,144,10.0,15.4,80,0.00,,,-99.99,FreeWX 2.03,2013-04-14 21:35:00,
2013-04-14 16:40:00,79.0,72.3,29.65,SE,144,10.0,16.3,80,0.00,,,-99.99,FreeWX 2.03,2013-04-14 21:40:00,
2013-04-14 16:45:00,79.2,72.5,29.65,SE,146,9.0,15.2,80,0.00,,,-99.99,FreeWX 2.03,2013-04-14 21:45:00,
2013-04-14 16:50:00,79.2,72.1,29.65,SSE,149,10.0,15.9,79,0.00,,,-99.99,FreeWX 2.03,2013-04-14 21:50:00,
2013-04-14 16:55:00,79.0,72.0,29.65,SSE,148,11.0,17.2,79,0.00,,,-99.99,FreeWX 2.03,2013-04-14 21:55:00,
2013-04-14 17:00:00,78.8,71.8,29.65,SSE,147,12.0,17.2,79,0.00,,,-99.99,FreeWX 2.03,2013-04-14 22:00:00,
2013-04-14 17:05:00,78.6,72.0,29.65,SSE,149,11.0,16.3,80,0.00,,,-99.99,FreeWX 2.03,2013-04-14 22:05:00,
2013-04-14 17:10:00,78.4,71.8,29.65,SSE,149,10.0,16.8,80,0.00,,,-99.99,FreeWX 2.03,2013-04-14 22:10:00,
2013-04-14 17:15:00,78.4,71.8,29.65,SSE,148,10.0,17.7,80,0.00,,,-99.99,FreeWX 2.03,2013-04-14 22:15:00,
2013-04-14 17:20:00,78.4,72.1,29.65,SSE,150,11.0,16.3,81,0.00,,,-99.99,FreeWX 2.03,2013-04-14 22:20:00,
2013-04-14 17:25:00,78.4,72.1,29.65,SSE,151,11.0,17.7,81,0.00,,,-99.99,FreeWX 2.03,2013-04-14 22:25:00,
2013-04-14 17:30:00,78.1,71.8,29.65,SSE,151,12.0,19.0,81,0.00,,,-99.99,FreeWX 2.03,2013-04-14 22:30:00,
2013-04-14 17:35:00,77.9,71.6,29.65,SSE,152,12.0,17.7,81,0.00,,,-99.99,FreeWX 2.03,2013-04-14 22:35:00,
2013-04-14 17:40:00,77.9,72.0,29.65,SSE,150,12.0,17.2,82,0.00,,,-99.99,FreeWX 2.03,2013-04-14 22:40:00,
2013-04-14 17:45:00,78.1,72.5,29.65,SSE,148,10.0,17.2,83,0.00,,,-99.99,FreeWX 2.03,2013-04-14 22:45:00,
2013-04-14 17:50:00,78.1,72.5,29.65,SSE,149,11.0,16.8,83,0.00,,,-99.99,FreeWX 2.03,2013-04-14 22:50:00,
2013-04-14 17:55:00,77.9,72.0,29.65,SSE,151,11.0,18.1,82,0.00,,,-99.99,FreeWX 2.03,2013-04-14 22:55:00,
2013-04-14 18:00:00,77.7,72.1,29.65,SSE,153,11.0,18.1,83,0.00,,,-99.99,FreeWX 2.03,2013-04-14 23:00:00,
2013-04-14 18:05:00,77.5,72.0,29.65,SSE,153,12.0,20.1,83,0.00,,,-99.99,FreeWX 2.03,2013-04-14 23:05:00,
2013-04-14 18:10:00,77.5,72.0,29.65,SSE,152,11.0,16.3,83,0.00,,,-99.99,FreeWX 2.03,2013-04-14 23:10:00,
2013-04-14 18:15:00,77.4,71.8,29.65,SSE,153,11.0,18.6,83,0.00,,,-99.99,FreeWX 2.03,2013-04-14 23:15:00,
2013-04-14 18:20:00,77.2,72.0,29.65,SSE,153,12.0,20.6,84,0.00,,,-99.99,FreeWX 2.03,2013-04-14 23:20:00,
2013-04-14 18:25:00,77.0,72.1,29.65,SSE,154,12.0,17.7,85,0.00,,,-99.99,FreeWX 2.03,2013-04-14 23:25:00,
2013-04-14 18:30:00,77.0,72.1,29.65,SSE,154,10.0,15.9,85,0.00,,,-99.99,FreeWX 2.03,2013-04-14 23:30:00,
2013-04-14 18:35:00,77.0,72.5,29.65,SSE,153,11.0,18.6,86,0.00,,,-99.99,FreeWX 2.03,2013-04-14 23:35:00,
2013-04-14 18:40:00,77.0,72.5,29.65,SSE,152,11.0,16.8,86,0.00,,,-99.99,FreeWX 2.03,2013-04-14 23:40:00,
2013-04-14 18:45:00,77.0,72.5,29.65,SSE,154,10.0,15.4,86,0.00,,,-99.99,FreeWX 2.03,2013-04-14 23:45:00,
2013-04-14 18:50:00,76.6,72.5,29.65,SSE,157,10.0,19.9,87,0.00,,,-99.99,FreeWX 2.03,2013-04-14 23:50:00,
2013-04-14 18:55:00,76.5,72.3,29.65,SSE,156,11.0,20.1,87,0.00,,,-99.99,FreeWX 2.03,2013-04-14 23:55:00,
2013-04-14 19:00:00,76.5,72.7,29.65,SSE,157,11.0,17.2,88,0.00,,,-99.99,FreeWX 2.03,2013-04-15 00:00:00,
2013-04-14 19:05:00,76.3,72.5,29.65,SSE,160,12.0,18.1,88,0.00,,,-99.99,FreeWX 2.03,2013-04-15 00:05:00,
2013-04-14 19:10:00,76.1,72.7,29.65,SSE,159,12.0,19.9,89,0.00,,,-99.99,FreeWX 2.03,2013-04-15 00:10:00,
2013-04-14 19:15:00,75.9,72.5,29.65,SSE,158,11.0,19.5,89,0.00,,,-99.99,FreeWX 2.03,2013-04-15 00:15:00,
2013-04-14 19:20:00,75.7,72.3,29.65,SSE,160,11.0,17.2,89,0.00,,,-99.99,FreeWX 2.03,2013-04-15 00:20:00,
2013-04-14 19:25:00,75.4,72.3,29.65,SSE,162,11.0,18.6,90,0.00,,,-99.99,FreeWX 2.03,2013-04-15 00:25:00,
2013-04-14 19:30:00,75.2,72.1,29.65,SSE,165,11.0,19.0,90,0.00,,,-99.99,FreeWX 2.03,2013-04-15 00:30:00,
2013-04-14 19:36:00,75.0,72.1,29.65,SSE,167,11.0,15.9,91,0.00,,,-99.99,FreeWX 2.03,2013-04-15 00:36:00,
2013-04-14 19:46:00,74.3,71.4,29.65,SSE,168,11.0,15.9,91,0.00,,,-99.99,FreeWX 2.03,2013-04-15 00:46:00,
2013-04-14 19:51:00,73.9,71.4,29.65,SSE,167,10.0,15.9,92,0.00,,,-99.99,FreeWX 2.03,2013-04-15 00:51:00,
2013-04-14 19:56:00,73.9,71.8,29.65,South,169,9.0,14.8,93,0.00,,,-99.99,FreeWX 2.03,2013-04-15 00:56:00,
2013-04-14 20:01:00,73.9,72.1,29.65,South,173,10.0,18.1,94,0.00,,,-99.99,FreeWX 2.03,2013-04-15 01:01:00,
2013-04-14 20:06:00,73.8,72.0,29.65,South,174,10.0,16.8,94,0.00,,,-99.99,FreeWX 2.03,2013-04-15 01:06:00,
2013-04-14 20:11:00,73.4,71.6,29.65,South,174,10.0,15.9,94,0.00,,,-99.99,FreeWX 2.03,2013-04-15 01:11:00,
2013-04-14 20:16:00,73.2,71.8,29.65,South,176,10.0,15.4,95,0.00,,,-99.99,FreeWX 2.03,2013-04-15 01:16:00,
2013-04-14 20:27:00,73.2,72.0,29.65,South,178,10.0,17.2,96,0.00,,,-99.99,FreeWX 2.03,2013-04-15 01:27:00,
2013-04-14 20:32:00,73.2,72.0,29.65,South,180,11.0,18.1,96,0.00,,,-99.99,FreeWX 2.03,2013-04-15 01:32:00,
2013-04-14 20:37:00,73.2,72.3,29.65,South,179,11.0,17.2,97,0.00,,,-99.99,FreeWX 2.03,2013-04-15 01:37:00,
2013-04-14 20:42:00,73.2,72.3,29.65,South,179,10.0,15.4,97,0.00,,,-99.99,FreeWX 2.03,2013-04-15 01:42:00,
2013-04-14 20:47:00,73.2,72.3,29.65,South,180,10.0,19.0,97,0.00,,,-99.99,FreeWX 2.03,2013-04-15 01:47:00,
2013-04-14 20:52:00,73.2,72.3,29.65,South,177,10.0,17.7,97,0.00,,,-99.99,FreeWX 2.03,2013-04-15 01:52:00,
2013-04-14 20:57:00,73.0,72.1,29.65,South,177,10.0,15.9,97,0.00,,,-99.99,FreeWX 2.03,2013-04-15 01:57:00,
2013-04-14 21:07:00,73.0,72.5,29.65,South,181,10.0,16.3,98,0.00,,,-99.99,FreeWX 2.03,2013-04-15 02:07:00,
2013-04-14 21:12:00,72.9,72.3,29.65,South,180,10.0,17.7,98,0.00,,,-99.99,FreeWX 2.03,2013-04-15 02:12:00,
2013-04-14 21:17:00,72.7,72.1,29.65,South,179,11.0,17.2,98,0.00,,,-99.99,FreeWX 2.03,2013-04-15 02:17:00,
2013-04-14 21:22:00,72.7,72.1,29.65,South,176,10.0,15.9,98,0.00,,,-99.99,FreeWX 2.03,2013-04-15 02:22:00,
2013-04-14 21:27:00,72.9,72.3,29.65,South,176,10.0,15.4,98,0.00,,,-99.99,FreeWX 2.03,2013-04-15 02:27:00,
2013-04-14 21:32:00,72.9,72.3,29.65,South,179,10.0,15.2,98,0.00,,,-99.99,FreeWX 2.03,2013-04-15 02:32:00,
2013-04-14 21:37:00,72.9,72.3,29.65,South,179,10.0,15.9,98,0.00,,,-99.99,FreeWX 2.03,2013-04-15 02:37:00,
2013-04-14 21:42:00,72.9,72.3,29.68,South,178,10.0,15.9,98,0.00,,,-99.99,FreeWX 2.03,2013-04-15 02:42:00,
2013-04-14 21:47:00,72.9,72.3,29.68,South,179,10.0,14.8,98,0.00,,,-99.99,FreeWX 2.03,2013-04-15 02:47:00,
2013-04-14 21:52:00,72.7,72.1,29.68,South,180,9.0,13.9,98,0.00,,,-99.99,FreeWX 2.03,2013-04-15 02:52:00,
2013-04-14 21:57:00,72.7,72.1,29.68,South,180,9.0,13.4,98,0.00,,,-99.99,FreeWX 2.03,2013-04-15 02:57:00,
2013-04-14 22:02:00,72.7,72.3,29.68,South,178,10.0,15.4,99,0.00,,,-99.99,FreeWX 2.03,2013-04-15 03:02:00,
2013-04-14 22:07:00,72.7,72.3,29.68,South,178,10.0,16.3,99,0.00,,,-99.99,FreeWX 2.03,2013-04-15 03:07:00,
2013-04-14 22:12:00,72.7,72.3,29.68,South,179,10.0,15.9,99,0.00,,,-99.99,FreeWX 2.03,2013-04-15 03:12:00,
2013-04-14 22:17:00,72.5,72.1,29.68,South,180,10.0,16.3,99,0.00,,,-99.99,FreeWX 2.03,2013-04-15 03:17:00,
2013-04-14 22:22:00,72.5,72.1,29.68,South,182,10.0,17.7,99,0.00,,,-99.99,FreeWX 2.03,2013-04-15 03:22:00,
2013-04-14 22:27:00,72.7,72.3,29.68,South,181,10.0,15.2,99,0.00,,,-99.99,FreeWX 2.03,2013-04-15 03:27:00,
2013-04-14 22:32:00,72.7,72.3,29.68,South,181,10.0,17.7,99,0.00,,,-99.99,FreeWX 2.03,2013-04-15 03:32:00,
2013-04-14 22:38:00,72.5,72.1,29.68,South,182,11.0,15.4,99,0.00,,,-99.99,FreeWX 2.03,2013-04-15 03:38:00,
2013-04-14 22:43:00,72.5,72.1,29.68,South,180,10.0,14.8,99,0.00,,,-99.99,FreeWX 2.03,2013-04-15 03:43:00,
2013-04-14 22:48:00,72.3,72.0,29.68,South,180,10.0,15.2,99,0.00,,,-99.99,FreeWX 2.03,2013-04-15 03:48:00,
2013-04-14 22:58:00,72.3,72.0,29.71,South,181,8.0,13.0,99,0.00,,,-99.99,FreeWX 2.03,2013-04-15 03:58:00,
2013-04-14 23:03:00,72.1,71.8,29.71,South,179,8.0,15.4,99,0.00,,,-99.99,FreeWX 2.03,2013-04-15 04:03:00,
2013-04-14 23:08:00,72.1,71.8,29.71,South,181,9.0,13.0,99,0.00,,,-99.99,FreeWX 2.03,2013-04-15 04:08:00,
2013-04-14 23:13:00,72.1,71.8,29.71,South,180,8.0,13.4,99,0.00,,,-99.99,FreeWX 2.03,2013-04-15 04:13:00,
2013-04-14 23:18:00,72.1,71.8,29.71,South,181,8.0,14.8,99,0.00,,,-99.99,FreeWX 2.03,2013-04-15 04:18:00,
2013-04-14 23:23:00,72.0,71.6,29.71,South,182,7.0,11.2,99,0.00,,,-99.99,FreeWX 2.03,2013-04-15 04:23:00,
2013-04-14 23:28:00,72.0,72.0,29.71,South,181,8.0,13.9,100,0.00,,,-99.99,FreeWX 2.03,2013-04-15 04:28:00,
2013-04-14 23:33:00,72.0,72.0,29.71,South,184,8.0,14.3,100,0.00,,,-99.99,FreeWX 2.03,2013-04-15 04:33:00,
2013-04-14 23:38:00,72.0,72.0,29.71,South,183,8.0,13.9,100,0.00,,,-99.99,FreeWX 2.03,2013-04-15 04:38:00,
2013-04-14 23:43:00,72.0,72.0,29.71,South,180,8.0,15.4,100,0.00,,,-99.99,FreeWX 2.03,2013-04-15 04:43:00,
2013-04-14 23:48:00,72.0,72.0,29.71,South,181,8.0,15.2,100,0.00,,,-99.99,FreeWX 2.03,2013-04-15 04:48:00,
2013-04-14 23:53:00,71.8,71.8,29.71,South,183,8.0,17.7,100,0.00,,,-99.99,FreeWX 2.03,2013-04-15 04:53:00,
2013-04-14 23:58:00,72.0,72.0,29.71,South,183,8.0,15.9,100,0.00,,,-99.99,FreeWX 2.03,2013-04-15 04:58:00,